GW1898 Weather Reports


time (UTC)temp
C
wind
direction
speed
KPH
gust
KPH
rain 1hr
cm
rain 24hr
cm
rain mn
cm
humidity
%
barometer
mb
20260504081546 10 0 0.0 0.0 0.00 0.00 0.00 60 1015.6
20260504044546 9 0 0.0 0.0 0.00 0.00 0.00 66 1015.9
20260504043040 9 0 0.0 0.0 0.00 0.00 0.00 66 1015.9
20260504041546 9 0 0.0 0.0 0.00 0.00 0.00 60 1015.9
20260504040101 9 0 0.0 0.0 0.00 0.00 0.00 60 1015.9
20260504034555 9 0 0.0 0.0 0.00 0.00 0.00 60 1015.9
20260504033103 10 0 0.0 0.0 0.00 0.00 0.00 56 1015.8
20260504031539 10 0 0.0 0.0 0.00 0.00 0.00 56 1015.7
20260504030049 10 0 0.0 0.0 0.00 0.00 0.00 56 1015.7
20260504024545 10 0 0.0 0.0 0.00 0.00 0.00 64 1015.5
20260504023057 10 0 0.0 0.0 0.00 0.00 0.00 64 1015.5
20260504021540 10 0 0.0 0.0 0.00 0.00 0.00 64 1015.3
20260504020040 9 0 0.0 0.0 0.00 0.00 0.00 49 1015.3
20260504014550 10 0 0.0 0.0 0.00 0.00 0.00 49 1015.2
20260504013049 10 0 0.0 0.0 0.00 0.00 0.00 49 1015.0
20260504011542 11 0 0.0 0.0 0.00 0.00 0.00 46 1015.0
20260504010050 11 0 0.0 0.0 0.00 0.00 0.00 46 1014.9
20260504004557 12 253 0.0 0.0 0.00 0.00 0.00 46 1014.8
20260504003040 12 0 0.0 0.0 0.00 0.00 0.00 33 1014.6
20260504001540 13 0 0.0 0.0 0.00 0.00 0.00 33 1014.5
20260504000046 15 0 0.0 0.0 0.00 0.00 0.00 29 1014.4
20260503234547 16 0 0.0 0.0 0.00 0.00 0.00 29 1014.3
20260503233041 16 0 1.6 3.2 0.00 0.00 0.00 29 1014.2
20260503231541 16 0 0.0 4.8 0.00 0.00 0.00 27 1014.1
20260503230040 18 315 4.8 6.4 0.00 0.00 0.00 27 1014.1
20260503224540 18 333 1.6 3.2 0.00 0.00 0.00 27 1014.2
20260503223049 17 305 6.4 6.4 0.00 0.00 0.00 27 1014.1
20260503221544 17 322 14.5 14.5 0.00 0.00 0.00 27 1014.2
20260503220045 18 236 0.0 3.2 0.00 0.00 0.00 27 1014.2
20260503214541 18 226 1.6 6.4 0.00 0.00 0.00 28 1014.3
20260503213100 17 317 4.8 8.0 0.00 0.00 0.00 28 1014.3
20260503211546 17 319 9.7 9.7 0.00 0.00 0.00 28 1014.2
20260503210055 17 277 4.8 9.7 0.00 0.00 0.00 29 1014.3
20260503204552 17 0 1.6 9.7 0.00 0.00 0.00 29 1014.4
20260503203043 16 296 6.4 9.7 0.00 0.00 0.00 29 1014.3
20260503201541 17 360 1.6 12.9 0.00 0.00 0.00 30 1014.9
20260503200044 17 285 3.2 8.0 0.00 0.00 0.00 30 1015.0
20260503194543 16 225 0.0 11.3 0.00 0.00 0.00 30 1015.2
20260503193052 16 263 4.8 9.7 0.00 0.00 0.00 33 1015.3
20260503191545 16 327 1.6 6.4 0.00 0.00 0.00 33 1015.5
20260503190044 16 276 1.6 1.6 0.00 0.00 0.00 33 1015.8
20260503184551 15 318 0.0 3.2 0.00 0.00 0.00 33 1015.9
20260503183058 15 321 4.8 8.0 0.00 0.00 0.00 33 1016.3
20260503181540 15 316 3.2 8.0 0.00 0.00 0.00 33 1016.3
20260503180048 14 296 12.9 12.9 0.00 0.00 0.00 33 1016.4
20260503174543 13 34 17.7 17.7 0.00 0.00 0.00 33 1016.5
20260503173108 13 5 9.7 11.3 0.00 0.00 0.00 33 1016.4
20260503171542 13 207 0.0 1.6 0.00 0.00 0.00 34 1016.6